Gustavus, AK

9:15 AM AKDT on April 24, 2018 (GMT -0800)
Gustavus

Weather History for PAGS - October, 2012

Change the Weather History Date:

Monday, October 1, 2012

  Actual Average Record
Temperature  
Mean Temperature 40 °F -  
Max Temperature 51 °F 53 °F 65 °F (1954)
Min Temperature 30 °F 38 °F 23 °F (1996)
Degree Days  
Heating Degree Days 24    
Moisture  
Dew Point 31 °F    
Average Humidity 76    
Maximum Humidity 87    
Minimum Humidity 44    
Precipitation  
Precipitation 0.00 in - - ()
Sea Level Pressure  
Sea Level Pressure 30.09 in    
Wind  
Wind Speed 2 mph (NNW)    
Max Wind Speed 10 mph    
Max Gust Speed -    
Visibility 10 miles    
Events      
Averages and records for this station are not official NWS values.
T = Trace of Precipitation, MM = Missing Value Source: NWS Daily Summary

Daily Weather History Graph

Daily Weather History Graph

Search for Another Location

Airport or City:

Astronomy

Oct. 01, 2012 Rise Set
Actual Time 7:08 AM AKDT 6:34 PM AKDT
Civil Twilight 6:29 AM AKDT 7:13 PM AKDT
Nautical Twilight 5:42 AM AKDT 8:00 PM AKDT
Astronomical Twilight 4:54 AM AKDT 8:48 PM AKDT
Moon 6:37 PM AKDT (10/1) 9:20 AM AKDT (10/1)
Length of Visible Light 12h 44m
Length of Day
11h 25m
Full, 97% of the Moon is Illuminated
Oct 1
Full
Oct 7
Last Quarter
Oct 15
New
Oct 21
First Quarter
Oct 29
Full

Hourly Weather History & Observations

Time (AKDT) Temp. Windchill Dew Point Humidity Pressure Visibility Wind Dir Wind Speed Gust Speed Precip Events Conditions
12:16 AM 41.0 °F 38.0 °F 35.6 °F 81% 29.87 in 10.0 mi NNW 4.6 mph - N/A   Clear
12:36 AM 41.0 °F 39.0 °F 35.6 °F 81% 29.86 in 10.0 mi NNW 3.5 mph - N/A   Clear
12:56 AM 39.2 °F 35.9 °F 35.6 °F 87% 29.86 in 10.0 mi NNW 4.6 mph - N/A   Clear
1:16 AM 39.2 °F 37.0 °F 35.6 °F 87% 29.85 in 10.0 mi NNW 3.5 mph - N/A   Clear
1:56 AM 39.2 °F - 35.6 °F 87% 29.85 in 10.0 mi Calm Calm - N/A   Clear
2:16 AM 37.4 °F - 32.0 °F 81% 29.85 in 10.0 mi Calm Calm - N/A   Clear
2:36 AM 37.4 °F - 32.0 °F 81% 29.85 in 10.0 mi Calm Calm - N/A   Clear
2:56 AM 35.6 °F - 30.2 °F 81% 29.85 in 10.0 mi Calm Calm - N/A   Clear
3:16 AM 35.6 °F - 30.2 °F 81% 29.84 in 10.0 mi Calm Calm - N/A   Clear
3:36 AM 33.8 °F - 30.2 °F 87% 29.85 in 10.0 mi Calm Calm - N/A   Clear
3:56 AM 33.8 °F - 28.4 °F 81% 29.85 in 10.0 mi Calm Calm - N/A   Clear
4:16 AM 33.8 °F 30.8 °F 28.4 °F 81% 29.85 in 10.0 mi North 3.5 mph - N/A   Clear
4:36 AM 33.8 °F 30.8 °F 28.4 °F 81% 29.85 in 10.0 mi North 3.5 mph - N/A   Clear
4:56 AM 33.8 °F - 28.4 °F 81% 29.85 in 10.0 mi Calm Calm - N/A   Clear
5:16 AM 32.0 °F - 28.4 °F 87% 29.86 in 10.0 mi Calm Calm - N/A   Clear
5:36 AM 32.0 °F - 28.4 °F 87% 29.87 in 10.0 mi Calm Calm - N/A   Clear
5:56 AM 32.0 °F 28.7 °F 26.6 °F 80% 29.87 in 10.0 mi North 3.5 mph - N/A   Clear
6:16 AM 30.2 °F - 26.6 °F 86% 29.88 in 10.0 mi Calm Calm - N/A   Clear
6:36 AM 30.2 °F - 26.6 °F 86% 29.89 in 10.0 mi Calm Calm - N/A   Clear
6:56 AM 30.2 °F - 26.6 °F 86% 29.89 in 10.0 mi Calm Calm - N/A   Clear
7:16 AM 30.2 °F - 26.6 °F 86% 29.90 in 10.0 mi Calm Calm - N/A   Clear
7:36 AM 30.2 °F - 26.6 °F 86% 29.91 in 10.0 mi Calm Calm - N/A   Clear
7:56 AM 30.2 °F - 26.6 °F 86% 29.92 in 10.0 mi Calm Calm - N/A   Clear
8:16 AM 32.0 °F - 28.4 °F 87% 29.93 in 10.0 mi Calm Calm - N/A   Clear
8:36 AM 33.8 °F - 28.4 °F 81% 29.93 in 10.0 mi Calm Calm - N/A   Clear
8:56 AM 33.8 °F - 28.4 °F 81% 29.94 in 10.0 mi Calm Calm - N/A   Scattered Clouds
9:16 AM 35.6 °F - 30.2 °F 81% 29.95 in 10.0 mi Calm Calm - N/A   Partly Cloudy
9:36 AM 35.6 °F - 32.0 °F 87% 29.96 in 10.0 mi Calm Calm - N/A   Clear
9:56 AM 39.2 °F 35.9 °F 33.8 °F 81% 29.97 in 10.0 mi East 4.6 mph - N/A   Mostly Cloudy
10:16 AM 42.8 °F - 37.4 °F 81% 29.98 in 10.0 mi Calm Calm - N/A   Mostly Cloudy
10:36 AM 46.4 °F - 37.4 °F 71% 29.99 in 10.0 mi Calm Calm - N/A   Overcast
10:56 AM 46.4 °F - 37.4 °F 71% 30.00 in 10.0 mi Calm Calm - N/A   Overcast
11:16 AM 46.4 °F 45.2 °F 35.6 °F 66% 30.01 in 10.0 mi NW 3.5 mph - N/A   Mostly Cloudy
11:56 AM 46.4 °F 45.2 °F 37.4 °F 71% 30.03 in 10.0 mi NNW 3.5 mph - N/A   Overcast
12:16 PM 48.2 °F - 37.4 °F 66% 30.05 in 10.0 mi North 3.5 mph - N/A   Overcast
12:36 PM 48.2 °F - 35.6 °F 62% 30.06 in 10.0 mi NNW 5.8 mph - N/A   Mostly Cloudy
12:56 PM 48.2 °F - 33.8 °F 58% 30.07 in 10.0 mi North 4.6 mph - N/A   Scattered Clouds
1:16 PM - - - N/A% 30.08 in 10.0 mi Calm Calm - N/A   Partly Cloudy
1:36 PM 48.2 °F - 33.8 °F 58% 30.10 in 10.0 mi WNW 6.9 mph - N/A   Partly Cloudy
1:56 PM - - - N/A% 30.11 in 10.0 mi NW 5.8 mph - N/A   Partly Cloudy
2:16 PM - - - N/A% 30.12 in 10.0 mi NNW 10.4 mph - N/A   Partly Cloudy
2:36 PM 51.8 °F - 33.8 °F 50% 30.14 in 10.0 mi NW 8.1 mph - N/A   Clear
2:56 PM - - - N/A% 30.15 in 10.0 mi WNW 8.1 mph - N/A   Clear
3:16 PM - - - N/A% 30.16 in 10.0 mi NW 6.9 mph - N/A   Clear
3:36 PM - - - N/A% 30.17 in 10.0 mi NW 10.4 mph - N/A   Clear
3:56 PM - - - N/A% 30.18 in 10.0 mi NW 5.8 mph - N/A   Clear
4:16 PM - - - N/A% 30.20 in 10.0 mi NW 6.9 mph - N/A   Clear
4:36 PM - - - N/A% 30.22 in 10.0 mi NW 5.8 mph - N/A   Clear
4:56 PM 51.8 °F - 30.2 °F 44% 30.24 in 10.0 mi NW 4.6 mph - N/A   Clear
5:16 PM 51.8 °F - 32.0 °F 47% 30.25 in 10.0 mi Calm Calm - N/A   Clear
5:36 PM 50.0 °F - 32.0 °F 50% 30.26 in 10.0 mi WNW 3.5 mph - N/A   Clear
5:56 PM 50.0 °F - 33.8 °F 54% 30.27 in 10.0 mi Calm Calm - N/A   Clear
6:16 PM 48.2 °F - 33.8 °F 58% 30.28 in 10.0 mi Calm Calm - N/A   Clear
6:36 PM 44.6 °F - 33.8 °F 66% 30.29 in 10.0 mi Calm Calm - N/A   Clear
6:56 PM 42.8 °F - 35.6 °F 76% 30.30 in 10.0 mi Calm Calm - N/A   Clear
7:16 PM 41.0 °F - 33.8 °F 76% 30.32 in 10.0 mi Calm Calm - N/A   Clear
7:36 PM - - - N/A% 30.33 in 10.0 mi Calm Calm - N/A   Clear
8:16 PM 37.4 °F - 30.2 °F 75% 30.36 in 10.0 mi Calm Calm - N/A   Clear
8:36 PM 37.4 °F - 30.2 °F 75% 30.37 in 10.0 mi Calm Calm - N/A   Clear
8:56 PM 35.6 °F - 28.4 °F 75% 30.38 in 10.0 mi Calm Calm - N/A   Clear
9:16 PM 35.6 °F - 30.2 °F 81% 30.39 in 10.0 mi Calm Calm - N/A   Clear
9:36 PM 35.6 °F - 30.2 °F 81% 30.40 in 10.0 mi Calm Calm - N/A   Clear
9:56 PM 33.8 °F - 28.4 °F 81% 30.41 in 10.0 mi Calm Calm - N/A   Clear
10:16 PM 33.8 °F - 28.4 °F 81% 30.41 in 10.0 mi Calm Calm - N/A   Clear
10:36 PM 33.8 °F - 28.4 °F 81% 30.43 in 10.0 mi Calm Calm - N/A   Clear
10:56 PM 33.8 °F - 28.4 °F 81% 30.44 in 10.0 mi Calm Calm - N/A   Clear
11:16 PM 33.8 °F - 28.4 °F 81% 30.45 in 10.0 mi Calm Calm - N/A   Clear
11:36 PM 32.0 °F - 26.6 °F 80% 30.46 in 10.0 mi Calm Calm - N/A   Clear
11:56 PM 32.0 °F 28.7 °F 26.6 °F 80% 30.47 in 10.0 mi NNW 3.5 mph - N/A   Clear